Hourly Data Report for December 01, 2012

BAGOTVILLE A
QUEBEC

48°20'00.000" N
71°00'00.000" W
159.10 m
7060400
71727
YBG

Download Data

Hourly Data (December 2012)
Hourly Data Report for December 1, 2012
TIME
LST
Temp Definition
°C
Dew Point Definition
°C
Rel Hum Definition
%
Precip. Amount Definition
mm

Wind Dir Definition
10's deg

Wind Spd Definition
km/h
Visibility Definition
km
Stn Press Definition
kPa
Hmdx Definition


Wind Chill Definition


Weather Definition


00:00 -15.6 -18.0 82   28 4 24.1 101.75   -19 Mainly Clear
01:00 -18.0 -20.7 79   24 6 24.1 101.77   -23 Mostly Cloudy
02:00 -16.4 -18.9 81   27 6 24.1 101.81   -21 Snow Showers
03:00 -16.6 -19.1 81   27 4 19.3 101.80   -20 Snow Showers
04:00 -16.1 -18.5 82   27 4 24.1 101.82   -19 Mostly Cloudy
05:00 -16.1 -18.5 82   27 6 24.1 101.88   -21 Mostly Cloudy
06:00 -16.2 -18.1 85   20 6 24.1 101.86   -21 Mostly Cloudy
07:00 -15.9 -18.9 78   20 6 40.2 101.82   -20 Mostly Cloudy
08:00 -15.2 -17.0 86   22 6 40.2 101.87   -19 Mostly Cloudy
09:00 -12.9 -15.9 78     0 40.2 101.87     Mainly Clear
10:00 -11.7 -14.9 77   10 7 40.2 101.84   -16 Mainly Clear
11:00 -10.5 -14.9 70   8 7 40.2 101.73   -15 Mainly Clear
12:00 -9.5 -13.6 72   8 11 40.2 101.61   -15 Mainly Clear
13:00 -8.2 -12.8 69   7 7 40.2 101.55   -12 Mainly Clear
14:00 -7.0 -12.9 63   9 6 40.2 101.50   -10 Mainly Clear
15:00 -6.3 -11.5 67   9 17 40.2 101.43   -13 Mainly Clear
16:00 -7.2 -11.9 69   9 17 40.2 101.41   -14 Mainly Clear
17:00 -8.2 -13.2 67   10 19 24.1 101.32   -15 Mainly Clear
18:00 -8.8 -13.1 71   10 15 24.1 101.29   -15 Mainly Clear
19:00 -9.2 -12.7 76   11 13 24.1 101.30   -15 Mainly Clear
20:00 -9.0 -13.4 70   10 19 24.1 101.17   -16 Mostly Cloudy
21:00 -8.4 -11.7 77   9 19 24.1 101.06   -16 Mostly Cloudy
22:00 -8.0 -12.9 68   10 20 24.1 100.99   -15 Cloudy
23:00 -7.6 -12.0 71   10 19 24.1 100.90   -15 Cloudy

Notes on Data Quality.

Legend

  • E = Estimated
  • M = Missing
  • NA = Not Available*
  • [empty] = Indicates an unobserved value
Date modified: